User: anonymous
Location: Los Gatos B&B
(42.6926°N, 77.0646°W)
Time: 17:15:11
(UTC-04:00)
Language:

Cosmos 2263 Rocket - Orbit

View from above orbital plane
View from above orbital plane
View from above satellite
View from above satellite

Ground track
Ground track

The orbit data is extracted from the following two-line orbital elements,

1 22803U 93059B   14211.48676990 -.00000217  00000-0 -84373-4 0  3297
2 22803 070.9914 307.5719 0017457 196.2863 163.7702 14.16670331 79181
Epoch (UTC): 30 July 2014 11:40:56
Eccentricity: 0.0017457
inclination: 70.9914°
perigee height: 824 km
apogee height: 849 km
right ascension of ascending node: 307.5719°
argument of perigee: 196.2863°
revolutions per day: 14.16670331
mean anomaly at epoch: 163.7702°
orbit number at epoch: 7918

The dashed part of the orbit path shows where the satellite is in the earth's shadow,  

DLR